Location: Daerah Kuala Lumpur
(3.1167°N, 101.6833°E)
Time: 14:15:11
(UTC+00:00)

BlueWalker 3 - Pass Details

Date: 15 February 2026
Orbit: 451 x 458 km, 53.2° (Epoch: 6 March)

Event Time Altitude Azimuth Distance (km) Brightness Sun altitude
Rises 12:39:01 0° 290° (WNW) 2,441 6.4 -18.2°
Reaches altitude 10° 12:42:42 10° 250° (WSW) 1,574 5.7 -19.0°
Maximum altitude 12:43:33 11° 236° (SW) 1,533 5.4 -19.3°
Drops below altitude 10° 12:44:24 10° 222° (SW) 1,575 5.2 -19.5°
Sets 12:48:07 0° 182° (S) 2,451 5.6 -20.4°
